| time (UTC) | temp F | wind direction | speed knots | gust knots | rain 1hr in | rain 24hr in | rain mn in | humidity % | barometer mb |
| 20260507142539 | 55 | 110 | 0.9 | 1.7 | 0.00 | 0.00 | 0.00 | 45 | 1009.9 |
| 20260507142036 | 55 | 126 | 0.0 | 0.9 | 0.00 | 0.00 | 0.00 | 46 | 1009.5 |
| 20260507141532 | 55 | 116 | 0.0 | 0.9 | 0.00 | 0.00 | 0.00 | 47 | 1009.5 |
| 20260507141029 | 54 | 18 | 2.6 | 2.6 | 0.00 | 0.00 | 0.00 | 47 | 1009.5 |
| 20260507140526 | 54 | 64 | 2.6 | 2.6 | 0.00 | 0.00 | 0.00 | 48 | 1009.5 |
| 20260507140024 | 54 | 352 | 2.6 | 4.3 | 0.00 | 0.00 | 0.00 | 48 | 1009.9 |
| 20260507135520 | 54 | 128 | 0.0 | 0.9 | 0.00 | 0.00 | 0.00 | 50 | 1009.5 |
| 20260507135017 | 54 | 144 | 0.0 | 0.9 | 0.00 | 0.00 | 0.00 | 51 | 1009.5 |
| 20260507134514 | 53 | 132 | 0.0 | 0.0 | 0.00 | 0.00 | 0.00 | 50 | 1009.5 |
| 20260507134009 | 53 | 345 | 0.9 | 1.7 | 0.00 | 0.00 | 0.00 | 51 | 1009.5 |
| 20260507133506 | 53 | 129 | 0.9 | 0.9 | 0.00 | 0.00 | 0.00 | 52 | 1009.5 |
| 20260507133004 | 53 | 133 | 0.0 | 0.9 | 0.00 | 0.00 | 0.00 | 52 | 1009.5 |
| 20260507132501 | 53 | 152 | 0.0 | 0.0 | 0.00 | 0.00 | 0.00 | 53 | 1009.5 |
| 20260507131957 | 52 | 79 | 0.9 | 1.7 | 0.00 | 0.00 | 0.00 | 53 | 1009.5 |
| 20260507131454 | 52 | 120 | 0.0 | 0.9 | 0.00 | 0.00 | 0.00 | 52 | 1009.5 |
| 20260507130950 | 52 | 111 | 0.0 | 0.9 | 0.00 | 0.00 | 0.00 | 53 | 1009.5 |
| 20260507130448 | 52 | 125 | 0.9 | 1.7 | 0.00 | 0.00 | 0.00 | 53 | 1009.2 |
| 20260507125946 | 51 | 89 | 0.9 | 0.9 | 0.00 | 0.00 | 0.00 | 53 | 1009.2 |
| 20260507125444 | 51 | 359 | 0.0 | 1.7 | 0.00 | 0.00 | 0.00 | 54 | 1009.2 |
| 20260507124941 | 51 | 75 | 0.0 | 0.0 | 0.00 | 0.00 | 0.00 | 54 | 1009.2 |
| 20260507124438 | 51 | 348 | 1.7 | 2.6 | 0.00 | 0.00 | 0.00 | 55 | 1009.2 |
| 20260507123936 | 51 | 124 | 0.0 | 0.0 | 0.00 | 0.00 | 0.00 | 55 | 1009.2 |
| 20260507123433 | 51 | 129 | 0.0 | 0.0 | 0.00 | 0.00 | 0.00 | 55 | 1009.2 |
| 20260507122929 | 51 | 135 | 0.0 | 0.0 | 0.00 | 0.00 | 0.00 | 56 | 1008.8 |
| 20260507122424 | 51 | 333 | 1.7 | 2.6 | 0.00 | 0.00 | 0.00 | 56 | 1008.8 |
| 20260507121921 | 51 | 62 | 2.6 | 2.6 | 0.00 | 0.00 | 0.00 | 56 | 1008.8 |
| 20260507121416 | 51 | 1 | 2.6 | 4.3 | 0.00 | 0.00 | 0.00 | 56 | 1008.5 |
| 20260507120913 | 51 | 44 | 2.6 | 4.3 | 0.00 | 0.00 | 0.00 | 56 | 1008.5 |
| 20260507120409 | 51 | 103 | 1.7 | 2.6 | 0.00 | 0.00 | 0.00 | 56 | 1008.5 |
| 20260507115906 | 51 | 98 | 0.0 | 0.0 | 0.00 | 0.00 | 0.00 | 56 | 1008.5 |
| 20260507115402 | 51 | 133 | 0.0 | 0.0 | 0.00 | 0.00 | 0.00 | 56 | 1008.5 |
| 20260507114858 | 52 | 87 | 0.9 | 1.7 | 0.00 | 0.00 | 0.00 | 57 | 1008.5 |
| 20260507114355 | 52 | 354 | 2.6 | 2.6 | 0.00 | 0.00 | 0.00 | 57 | 1008.5 |
| 20260507113852 | 52 | 342 | 2.6 | 2.6 | 0.00 | 0.00 | 0.00 | 57 | 1008.5 |
| 20260507113349 | 52 | 81 | 0.9 | 1.7 | 0.00 | 0.00 | 0.00 | 57 | 1008.5 |
| 20260507112846 | 52 | 145 | 0.0 | 0.0 | 0.00 | 0.00 | 0.00 | 57 | 1008.5 |
| 20260507112343 | 52 | 105 | 0.0 | 0.9 | 0.00 | 0.00 | 0.00 | 57 | 1008.5 |
| 20260507111841 | 53 | 112 | 1.7 | 4.3 | 0.00 | 0.00 | 0.00 | 57 | 1008.0 |
| 20260507111338 | 53 | 94 | 0.9 | 1.7 | 0.00 | 0.00 | 0.00 | 57 | 1008.0 |
| 20260507110834 | 53 | 36 | 2.6 | 2.6 | 0.00 | 0.00 | 0.00 | 57 | 1008.0 |
| 20260507110330 | 53 | 79 | 1.7 | 2.6 | 0.00 | 0.00 | 0.00 | 58 | 1008.0 |
| 20260507105827 | 53 | 94 | 0.9 | 2.6 | 0.00 | 0.00 | 0.00 | 58 | 1008.0 |
| 20260507105324 | 53 | 56 | 1.7 | 2.6 | 0.00 | 0.00 | 0.00 | 58 | 1007.7 |
| 20260507104821 | 53 | 94 | 0.0 | 0.9 | 0.00 | 0.00 | 0.00 | 59 | 1008.0 |
| 20260507104317 | 53 | 82 | 0.9 | 1.7 | 0.00 | 0.00 | 0.00 | 59 | 1008.0 |
| 20260507103813 | 53 | 71 | 1.7 | 2.6 | 0.00 | 0.00 | 0.00 | 59 | 1008.0 |
| 20260507103309 | 53 | 345 | 0.9 | 1.7 | 0.00 | 0.00 | 0.00 | 59 | 1007.7 |
| 20260507102806 | 53 | 127 | 0.0 | 0.0 | 0.00 | 0.00 | 0.00 | 58 | 1008.0 |
| 20260507102306 | 53 | 35 | 1.7 | 1.7 | 0.00 | 0.00 | 0.00 | 59 | 1007.7 |
| 20260507101759 | 53 | 119 | 0.9 | 0.9 | 0.00 | 0.00 | 0.00 | 59 | 1008.0 |
| 20260507101254 | 53 | 103 | 0.0 | 0.9 | 0.00 | 0.00 | 0.00 | 59 | 1008.0 |
| 20260507100751 | 53 | 130 | 0.0 | 0.9 | 0.00 | 0.00 | 0.00 | 59 | 1008.0 |
| 20260507100249 | 53 | 100 | 0.9 | 0.9 | 0.00 | 0.00 | 0.00 | 59 | 1007.7 |
| 20260507095747 | 53 | 93 | 0.9 | 1.7 | 0.00 | 0.00 | 0.00 | 58 | 1007.7 |
| 20260507095243 | 53 | 28 | 1.7 | 2.6 | 0.00 | 0.00 | 0.00 | 58 | 1007.4 |
| 20260507094740 | 53 | 102 | 0.0 | 0.9 | 0.00 | 0.00 | 0.00 | 58 | 1007.7 |
| 20260507094237 | 54 | 287 | 0.0 | 0.9 | 0.00 | 0.00 | 0.00 | 58 | 1007.7 |
| 20260507093734 | 54 | 128 | 0.0 | 0.0 | 0.00 | 0.00 | 0.00 | 57 | 1007.7 |
| 20260507093233 | 54 | 121 | 0.0 | 0.0 | 0.00 | 0.00 | 0.00 | 57 | 1007.7 |
| 20260507092730 | 54 | 116 | 0.0 | 0.9 | 0.00 | 0.00 | 0.00 | 57 | 1007.7 |
| 20260507092226 | 54 | 81 | 0.9 | 0.9 | 0.00 | 0.00 | 0.00 | 57 | 1007.7 |
| 20260507091722 | 54 | 124 | 0.0 | 0.0 | 0.00 | 0.00 | 0.00 | 57 | 1007.7 |
| 20260507091219 | 55 | 98 | 0.0 | 0.9 | 0.00 | 0.00 | 0.00 | 57 | 1007.7 |
| 20260507090719 | 55 | 99 | 0.9 | 0.9 | 0.00 | 0.00 | 0.00 | 57 | 1007.4 |
| 20260507090216 | 55 | 120 | 0.0 | 0.9 | 0.00 | 0.00 | 0.00 | 57 | 1007.7 |
| 20260507085714 | 55 | 4 | 1.7 | 2.6 | 0.00 | 0.00 | 0.00 | 56 | 1007.7 |
| 20260507085210 | 55 | 122 | 0.0 | 0.9 | 0.00 | 0.00 | 0.00 | 56 | 1007.4 |
| 20260507084707 | 55 | 111 | 0.0 | 0.9 | 0.00 | 0.00 | 0.00 | 56 | 1007.7 |
| 20260507084204 | 55 | 133 | 0.0 | 0.0 | 0.00 | 0.00 | 0.00 | 56 | 1007.7 |
| 20260507083701 | 55 | 117 | 0.9 | 0.9 | 0.00 | 0.00 | 0.00 | 56 | 1007.4 |
| 20260507083158 | 55 | 134 | 0.0 | 0.0 | 0.00 | 0.00 | 0.00 | 55 | 1007.7 |
| 20260507082654 | 55 | 130 | 0.0 | 0.0 | 0.00 | 0.00 | 0.00 | 55 | 1007.4 |
| 20260507082150 | 55 | 129 | 0.0 | 0.0 | 0.00 | 0.00 | 0.00 | 55 | 1007.7 |
| 20260507081647 | 55 | 127 | 0.0 | 0.0 | 0.00 | 0.00 | 0.00 | 55 | 1007.4 |
| 20260507081143 | 55 | 77 | 0.0 | 0.9 | 0.00 | 0.00 | 0.00 | 55 | 1007.7 |
| 20260507080640 | 55 | 1 | 0.9 | 1.7 | 0.00 | 0.00 | 0.00 | 54 | 1007.7 |
| 20260507080136 | 55 | 104 | 0.0 | 0.9 | 0.00 | 0.00 | 0.00 | 54 | 1007.4 |
| 20260507075631 | 55 | 118 | 0.0 | 0.0 | 0.00 | 0.00 | 0.00 | 54 | 1007.7 |
| 20260507075127 | 55 | 111 | 0.9 | 0.9 | 0.00 | 0.00 | 0.00 | 54 | 1007.7 |
| 20260507074624 | 55 | 10 | 2.6 | 2.6 | 0.00 | 0.00 | 0.00 | 54 | 1007.7 |
| 20260507074123 | 55 | 144 | 0.9 | 0.9 | 0.00 | 0.00 | 0.00 | 55 | 1007.7 |
| 20260507073619 | 55 | 139 | 0.0 | 0.9 | 0.00 | 0.00 | 0.00 | 55 | 1008.0 |
| 20260507073115 | 55 | 90 | 0.9 | 2.6 | 0.00 | 0.00 | 0.00 | 56 | 1007.7 |
| 20260507072613 | 55 | 138 | 0.9 | 1.7 | 0.00 | 0.00 | 0.00 | 56 | 1007.7 |
| 20260507072110 | 55 | 5 | 0.0 | 0.9 | 0.00 | 0.00 | 0.00 | 55 | 1007.7 |
| 20260507071607 | 55 | 1 | 0.0 | 0.0 | 0.00 | 0.00 | 0.00 | 55 | 1007.7 |
| 20260507071103 | 55 | 94 | 0.9 | 1.7 | 0.00 | 0.00 | 0.00 | 56 | 1008.0 |
| 20260507070601 | 55 | 9 | 0.9 | 1.7 | 0.00 | 0.00 | 0.00 | 55 | 1007.7 |
| 20260507070058 | 55 | 166 | 0.0 | 0.9 | 0.00 | 0.00 | 0.00 | 56 | 1007.7 |
| 20260507065554 | 55 | 160 | 0.0 | 0.9 | 0.00 | 0.00 | 0.00 | 57 | 1007.7 |
| 20260507065051 | 55 | 167 | 0.0 | 0.9 | 0.00 | 0.00 | 0.00 | 56 | 1008.0 |
| 20260507064549 | 55 | 127 | 0.0 | 0.9 | 0.00 | 0.00 | 0.00 | 55 | 1008.0 |
| 20260507064047 | 55 | 120 | 0.0 | 0.0 | 0.00 | 0.00 | 0.00 | 55 | 1007.7 |
| 20260507063544 | 56 | 148 | 0.0 | 0.0 | 0.00 | 0.00 | 0.00 | 55 | 1007.7 |
| 20260507063041 | 56 | 159 | 0.0 | 0.0 | 0.00 | 0.00 | 0.00 | 55 | 1008.0 |
| 20260507062538 | 56 | 165 | 0.0 | 0.9 | 0.00 | 0.00 | 0.00 | 55 | 1007.7 |
| 20260507062036 | 56 | 159 | 0.0 | 0.0 | 0.00 | 0.00 | 0.00 | 53 | 1007.7 |
| 20260507061533 | 56 | 159 | 0.0 | 0.0 | 0.00 | 0.00 | 0.00 | 52 | 1007.4 |
| 20260507061031 | 56 | 157 | 0.0 | 0.0 | 0.00 | 0.00 | 0.00 | 52 | 1007.7 |
| 20260507060529 | 56 | 147 | 0.0 | 0.0 | 0.00 | 0.00 | 0.00 | 53 | 1007.7 |
| 20260507060025 | 56 | 14 | 0.0 | 0.0 | 0.00 | 0.00 | 0.00 | 52 | 1008.5 |
| 20260507055520 | 56 | 13 | 0.9 | 1.7 | 0.00 | 0.00 | 0.00 | 53 | 1008.5 |
| 20260507055016 | 56 | 10 | 0.9 | 1.7 | 0.00 | 0.00 | 0.00 | 53 | 1008.5 |
| 20260507054512 | 56 | 110 | 0.0 | 0.9 | 0.00 | 0.00 | 0.00 | 54 | 1008.5 |
| 20260507054010 | 56 | 147 | 0.0 | 0.0 | 0.00 | 0.00 | 0.00 | 55 | 1008.0 |
| 20260507053508 | 56 | 100 | 0.9 | 0.9 | 0.00 | 0.00 | 0.00 | 54 | 1008.0 |
| 20260507053006 | 56 | 137 | 0.0 | 0.0 | 0.00 | 0.00 | 0.00 | 54 | 1007.7 |
| 20260507052503 | 56 | 129 | 0.0 | 0.0 | 0.00 | 0.00 | 0.00 | 54 | 1007.7 |
| 20260507051959 | 56 | 149 | 0.0 | 0.0 | 0.00 | 0.00 | 0.00 | 54 | 1007.7 |
| 20260507051457 | 55 | 137 | 0.0 | 0.0 | 0.00 | 0.00 | 0.00 | 54 | 1007.7 |
| 20260507050954 | 55 | 151 | 0.0 | 0.0 | 0.00 | 0.00 | 0.00 | 55 | 1008.0 |
| 20260507050450 | 55 | 123 | 0.0 | 0.9 | 0.00 | 0.00 | 0.00 | 55 | 1008.5 |
| 20260507045947 | 55 | 135 | 0.0 | 0.0 | 0.00 | 0.00 | 0.00 | 57 | 1008.0 |
| 20260507045444 | 55 | 145 | 0.0 | 0.0 | 0.00 | 0.00 | 0.00 | 58 | 1007.7 |
| 20260507044941 | 56 | 147 | 0.0 | 0.9 | 0.00 | 0.00 | 0.00 | 58 | 1008.0 |
| 20260507044438 | 56 | 135 | 0.0 | 0.9 | 0.00 | 0.00 | 0.00 | 59 | 1008.0 |
| 20260507043934 | 56 | 153 | 0.0 | 0.0 | 0.00 | 0.00 | 0.00 | 58 | 1007.7 |
| 20260507043430 | 56 | 149 | 0.0 | 0.0 | 0.00 | 0.00 | 0.00 | 57 | 1007.7 |
| 20260507042927 | 57 | 130 | 0.0 | 0.9 | 0.00 | 0.00 | 0.00 | 57 | 1007.7 |
| 20260507042424 | 57 | 63 | 0.0 | 0.9 | 0.00 | 0.00 | 0.00 | 56 | 1007.4 |
| 20260507041919 | 57 | 147 | 0.0 | 0.0 | 0.00 | 0.00 | 0.00 | 56 | 1007.4 |
| 20260507041416 | 57 | 146 | 0.0 | 0.0 | 0.00 | 0.00 | 0.00 | 55 | 1007.7 |
| 20260507040914 | 58 | 146 | 0.0 | 0.0 | 0.00 | 0.00 | 0.00 | 55 | 1007.7 |
| 20260507040409 | 58 | 145 | 0.0 | 0.0 | 0.00 | 0.00 | 0.00 | 54 | 1007.4 |
| 20260507035905 | 58 | 137 | 0.0 | 0.0 | 0.00 | 0.00 | 0.00 | 54 | 1007.4 |
| 20260507035402 | 58 | 14 | 0.9 | 0.9 | 0.00 | 0.00 | 0.00 | 53 | 1007.4 |
| 20260507034859 | 59 | 113 | 0.0 | 0.9 | 0.00 | 0.00 | 0.00 | 52 | 1007.4 |
| 20260507034355 | 59 | 89 | 0.0 | 0.9 | 0.00 | 0.00 | 0.00 | 52 | 1007.4 |
| 20260507033853 | 59 | 124 | 0.0 | 0.9 | 0.00 | 0.00 | 0.00 | 52 | 1007.0 |
| 20260507033351 | 60 | 86 | 2.6 | 4.3 | 0.00 | 0.00 | 0.00 | 50 | 1007.0 |
| 20260507032848 | 60 | 163 | 0.0 | 0.0 | 0.00 | 0.00 | 0.00 | 49 | 1007.0 |
| 20260507032345 | 60 | 145 | 0.9 | 0.9 | 0.00 | 0.00 | 0.00 | 49 | 1006.6 |
| 20260507031841 | 61 | 149 | 0.0 | 0.0 | 0.00 | 0.00 | 0.00 | 45 | 1006.2 |
| 20260507031338 | 61 | 182 | 1.7 | 2.6 | 0.00 | 0.00 | 0.00 | 44 | 1006.2 |
| 20260507030834 | 61 | 151 | 0.9 | 1.7 | 0.00 | 0.00 | 0.00 | 49 | 1006.2 |
| 20260507030332 | 61 | 150 | 2.6 | 4.3 | 0.00 | 0.00 | 0.00 | 46 | 1006.6 |
| 20260507025828 | 62 | 141 | 0.0 | 0.0 | 0.00 | 0.00 | 0.00 | 45 | 1007.4 |
| 20260507025326 | 62 | 166 | 1.7 | 2.6 | 0.00 | 0.00 | 0.00 | 45 | 1007.4 |
| 20260507024824 | 62 | 341 | 3.5 | 5.2 | 0.00 | 0.00 | 0.00 | 43 | 1007.4 |
| 20260507024321 | 62 | 126 | 0.9 | 0.9 | 0.00 | 0.00 | 0.00 | 42 | 1007.4 |
| 20260507023816 | 63 | 155 | 0.0 | 0.9 | 0.00 | 0.00 | 0.00 | 41 | 1007.0 |
| 20260507023313 | 63 | 74 | 0.0 | 1.7 | 0.00 | 0.00 | 0.00 | 39 | 1007.4 |
| 20260507022810 | 63 | 151 | 2.6 | 2.6 | 0.00 | 0.00 | 0.00 | 37 | 1007.4 |
| 20260507022307 | 64 | 175 | 1.7 | 1.7 | 0.00 | 0.00 | 0.00 | 37 | 1006.6 |
| 20260507021803 | 64 | 161 | 0.9 | 1.7 | 0.00 | 0.00 | 0.00 | 36 | 1007.0 |
| 20260507021259 | 64 | 135 | 0.0 | 0.9 | 0.00 | 0.00 | 0.00 | 38 | 1007.4 |
| 20260507020757 | 64 | 71 | 2.6 | 2.6 | 0.00 | 0.00 | 0.00 | 31 | 1007.4 |
| 20260507020253 | 64 | 159 | 0.0 | 0.0 | 0.00 | 0.00 | 0.00 | 33 | 1007.4 |
| 20260507015751 | 65 | 180 | 0.0 | 0.0 | 0.00 | 0.00 | 0.00 | 30 | 1007.0 |
| 20260507015248 | 65 | 162 | 0.9 | 0.9 | 0.00 | 0.00 | 0.00 | 30 | 1007.0 |
| 20260507014745 | 65 | 177 | 0.9 | 0.9 | 0.00 | 0.00 | 0.00 | 30 | 1006.6 |
| 20260507014241 | 65 | 175 | 1.7 | 1.7 | 0.00 | 0.00 | 0.00 | 31 | 1006.6 |
| 20260507013738 | 65 | 184 | 1.7 | 1.7 | 0.00 | 0.00 | 0.00 | 30 | 1006.6 |
| 20260507013235 | 65 | 191 | 0.9 | 1.7 | 0.00 | 0.00 | 0.00 | 30 | 1006.2 |
| 20260507012732 | 65 | 184 | 1.7 | 1.7 | 0.00 | 0.00 | 0.00 | 30 | 1006.2 |
| 20260507012228 | 65 | 174 | 2.6 | 2.6 | 0.00 | 0.00 | 0.00 | 30 | 1005.9 |
| 20260507011726 | 65 | 185 | 0.9 | 1.7 | 0.00 | 0.00 | 0.00 | 30 | 1005.9 |
| 20260507011222 | 66 | 181 | 0.9 | 0.9 | 0.00 | 0.00 | 0.00 | 30 | 1005.9 |
| 20260507010721 | 66 | 171 | 0.0 | 0.9 | 0.00 | 0.00 | 0.00 | 29 | 1005.9 |
| 20260507010217 | 66 | 192 | 0.9 | 1.7 | 0.00 | 0.00 | 0.00 | 30 | 1006.2 |
| 20260507005716 | 66 | 170 | 0.0 | 0.9 | 0.00 | 0.00 | 0.00 | 29 | 1006.2 |
| 20260507005211 | 66 | 149 | 0.0 | 0.0 | 0.00 | 0.00 | 0.00 | 30 | 1006.2 |
| 20260507004708 | 66 | 163 | 0.0 | 0.9 | 0.00 | 0.00 | 0.00 | 29 | 1005.9 |
| 20260507004206 | 66 | 167 | 0.0 | 0.0 | 0.00 | 0.00 | 0.00 | 29 | 1005.9 |
| 20260507003702 | 66 | 194 | 1.7 | 1.7 | 0.00 | 0.00 | 0.00 | 29 | 1005.9 |
| 20260507003157 | 67 | 169 | 0.9 | 0.9 | 0.00 | 0.00 | 0.00 | 30 | 1005.9 |
| 20260507002654 | 67 | 38 | 1.7 | 1.7 | 0.00 | 0.00 | 0.00 | 29 | 1005.9 |
| 20260507002149 | 67 | 5 | 1.7 | 2.6 | 0.00 | 0.00 | 0.00 | 29 | 1005.9 |
| 20260507001647 | 67 | 357 | 0.9 | 1.7 | 0.00 | 0.00 | 0.00 | 29 | 1005.9 |
| 20260507001144 | 67 | 130 | 0.0 | 0.9 | 0.00 | 0.00 | 0.00 | 29 | 1005.6 |
| 20260507000640 | 67 | 167 | 1.7 | 1.7 | 0.00 | 0.00 | 0.00 | 29 | 1005.6 |
| 20260507000135 | 67 | 167 | 0.0 | 0.9 | 0.00 | 0.00 | 0.00 | 29 | 1005.6 |
| 20260506235633 | 67 | 337 | 2.6 | 2.6 | 0.00 | 0.00 | 0.00 | 29 | 1005.9 |
| 20260506235133 | 67 | 190 | 1.7 | 1.7 | 0.00 | 0.00 | 0.00 | 29 | 1005.6 |
| 20260506234631 | 67 | 172 | 0.0 | 0.0 | 0.00 | 0.00 | 0.00 | 29 | 1005.6 |
| 20260506234128 | 67 | 137 | 0.9 | 1.7 | 0.00 | 0.00 | 0.00 | 29 | 1005.6 |
| 20260506233625 | 66 | 197 | 0.9 | 1.7 | 0.00 | 0.00 | 0.00 | 28 | 1005.9 |
| 20260506233122 | 66 | 159 | 0.9 | 0.9 | 0.00 | 0.00 | 0.00 | 29 | 1005.9 |
| 20260506232618 | 66 | 144 | 0.9 | 0.9 | 0.00 | 0.00 | 0.00 | 29 | 1005.6 |
| 20260506232114 | 67 | 67 | 0.9 | 1.7 | 0.00 | 0.00 | 0.00 | 29 | 1005.6 |
| 20260506231611 | 67 | 194 | 3.5 | 4.3 | 0.00 | 0.00 | 0.00 | 29 | 1005.9 |
| 20260506231109 | 67 | 180 | 0.0 | 0.9 | 0.00 | 0.00 | 0.00 | 29 | 1005.6 |
| 20260506230606 | 67 | 332 | 2.6 | 5.2 | 0.00 | 0.00 | 0.00 | 29 | 1005.6 |
| 20260506230103 | 67 | 344 | 0.0 | 0.0 | 0.00 | 0.00 | 0.00 | 29 | 1005.6 |
| 20260506225559 | 67 | 153 | 0.0 | 0.0 | 0.00 | 0.00 | 0.00 | 29 | 1005.9 |
| 20260506225055 | 67 | 164 | 0.0 | 0.9 | 0.00 | 0.00 | 0.00 | 29 | 1005.9 |
| 20260506224553 | 67 | 192 | 4.3 | 6.1 | 0.00 | 0.00 | 0.00 | 29 | 1005.9 |
| 20260506224049 | 67 | 177 | 0.0 | 0.9 | 0.00 | 0.00 | 0.00 | 29 | 1005.9 |
| 20260506223545 | 67 | 187 | 0.9 | 1.7 | 0.00 | 0.00 | 0.00 | 29 | 1005.9 |
| 20260506223042 | 66 | 352 | 0.0 | 0.9 | 0.00 | 0.00 | 0.00 | 29 | 1005.9 |
| 20260506222539 | 66 | 136 | 0.9 | 1.7 | 0.00 | 0.00 | 0.00 | 29 | 1005.9 |
| 20260506222035 | 66 | 222 | 1.7 | 2.6 | 0.00 | 0.00 | 0.00 | 29 | 1005.9 |
| 20260506221532 | 66 | 208 | 0.9 | 0.9 | 0.00 | 0.00 | 0.00 | 28 | 1006.2 |
| 20260506221030 | 66 | 206 | 1.7 | 4.3 | 0.00 | 0.00 | 0.00 | 29 | 1006.2 |
| 20260506220526 | 66 | 231 | 0.9 | 1.7 | 0.00 | 0.00 | 0.00 | 28 | 1006.2 |
| 20260506220022 | 66 | 175 | 1.7 | 1.7 | 0.00 | 0.00 | 0.00 | 29 | 1006.2 |
| 20260506215519 | 66 | 176 | 1.7 | 1.7 | 0.00 | 0.00 | 0.00 | 29 | 1006.2 |
| 20260506215015 | 66 | 134 | 1.7 | 1.7 | 0.00 | 0.00 | 0.00 | 29 | 1006.6 |
| 20260506214512 | 66 | 171 | 0.9 | 1.7 | 0.00 | 0.00 | 0.00 | 28 | 1006.2 |
| 20260506214009 | 66 | 202 | 5.2 | 6.1 | 0.00 | 0.00 | 0.00 | 29 | 1006.6 |
| 20260506213507 | 66 | 101 | 1.7 | 2.6 | 0.00 | 0.00 | 0.00 | 28 | 1007.0 |
| 20260506213004 | 66 | 84 | 0.0 | 0.0 | 0.00 | 0.00 | 0.00 | 29 | 1006.6 |
| 20260506212500 | 66 | 185 | 0.9 | 1.7 | 0.00 | 0.00 | 0.00 | 29 | 1007.0 |
| 20260506211955 | 66 | 209 | 2.6 | 4.3 | 0.00 | 0.00 | 0.00 | 29 | 1007.0 |
| 20260506211451 | 66 | 197 | 0.9 | 1.7 | 0.00 | 0.00 | 0.00 | 28 | 1007.0 |
| 20260506210948 | 66 | 8 | 1.7 | 1.7 | 0.00 | 0.00 | 0.00 | 28 | 1007.0 |
| 20260506210444 | 66 | 211 | 4.3 | 9.6 | 0.00 | 0.00 | 0.00 | 28 | 1007.4 |
| 20260506205942 | 66 | 207 | 2.6 | 2.6 | 0.00 | 0.00 | 0.00 | 28 | 1007.4 |
| 20260506205438 | 66 | 168 | 5.2 | 6.1 | 0.00 | 0.00 | 0.00 | 29 | 1007.4 |
| 20260506204934 | 65 | 189 | 2.6 | 4.3 | 0.00 | 0.00 | 0.00 | 28 | 1007.0 |
| 20260506204432 | 65 | 136 | 2.6 | 2.6 | 0.00 | 0.00 | 0.00 | 28 | 1007.0 |
| 20260506203929 | 65 | 200 | 0.9 | 1.7 | 0.00 | 0.00 | 0.00 | 29 | 1007.0 |
| 20260506203426 | 64 | 152 | 2.6 | 5.2 | 0.00 | 0.00 | 0.00 | 28 | 1007.4 |
| 20260506202923 | 64 | 334 | 0.0 | 0.9 | 0.00 | 0.00 | 0.00 | 30 | 1007.0 |
| 20260506202421 | 64 | 207 | 3.5 | 4.3 | 0.00 | 0.00 | 0.00 | 29 | 1007.4 |
| 20260506201917 | 64 | 185 | 0.9 | 1.7 | 0.00 | 0.00 | 0.00 | 30 | 1007.4 |
| 20260506201414 | 63 | 188 | 0.9 | 1.7 | 0.00 | 0.00 | 0.00 | 29 | 1007.7 |
| 20260506200911 | 63 | 201 | 2.6 | 4.3 | 0.00 | 0.00 | 0.00 | 30 | 1007.7 |
| 20260506200407 | 63 | 175 | 4.3 | 6.1 | 0.00 | 0.00 | 0.00 | 29 | 1007.7 |
| 20260506195904 | 63 | 155 | 3.5 | 7.0 | 0.00 | 0.00 | 0.00 | 29 | 1007.4 |
| 20260506195401 | 62 | 184 | 0.9 | 5.2 | 0.00 | 0.00 | 0.00 | 31 | 1007.7 |
| 20260506194857 | 62 | 188 | 3.5 | 5.2 | 0.00 | 0.00 | 0.00 | 30 | 1008.0 |
| 20260506194354 | 62 | 206 | 1.7 | 2.6 | 0.00 | 0.00 | 0.00 | 29 | 1007.7 |
| 20260506193852 | 62 | 191 | 2.6 | 4.3 | 0.00 | 0.00 | 0.00 | 30 | 1007.7 |
| 20260506193349 | 61 | 147 | 2.6 | 2.6 | 0.00 | 0.00 | 0.00 | 30 | 1007.7 |
| 20260506192845 | 61 | 225 | 3.5 | 4.3 | 0.00 | 0.00 | 0.00 | 30 | 1008.0 |
| 20260506192342 | 61 | 198 | 6.1 | 7.8 | 0.00 | 0.00 | 0.00 | 31 | 1008.0 |
| 20260506191839 | 60 | 142 | 0.9 | 1.7 | 0.00 | 0.00 | 0.00 | 30 | 1008.0 |
| 20260506191335 | 60 | 199 | 3.5 | 4.3 | 0.00 | 0.00 | 0.00 | 30 | 1008.5 |
| 20260506190832 | 60 | 210 | 6.1 | 7.8 | 0.00 | 0.00 | 0.00 | 32 | 1008.0 |
| 20260506190328 | 59 | 191 | 3.5 | 6.1 | 0.00 | 0.00 | 0.00 | 32 | 1008.5 |
| 20260506185825 | 59 | 169 | 4.3 | 5.2 | 0.00 | 0.00 | 0.00 | 32 | 1008.5 |
| 20260506185322 | 59 | 183 | 5.2 | 6.1 | 0.00 | 0.00 | 0.00 | 32 | 1008.5 |
| 20260506184819 | 59 | 162 | 7.0 | 11.3 | 0.00 | 0.00 | 0.00 | 32 | 1008.5 |
| 20260506184317 | 59 | 160 | 3.5 | 5.2 | 0.00 | 0.00 | 0.00 | 32 | 1008.5 |
| 20260506183814 | 59 | 195 | 5.2 | 7.0 | 0.00 | 0.00 | 0.00 | 32 | 1008.5 |
| 20260506183309 | 59 | 186 | 3.5 | 4.3 | 0.00 | 0.00 | 0.00 | 32 | 1008.5 |
| 20260506182806 | 59 | 184 | 5.2 | 7.0 | 0.00 | 0.00 | 0.00 | 32 | 1008.5 |
| 20260506182306 | 59 | 163 | 6.1 | 8.7 | 0.00 | 0.00 | 0.00 | 32 | 1008.8 |
| 20260506181801 | 59 | 181 | 4.3 | 6.1 | 0.00 | 0.00 | 0.00 | 31 | 1008.8 |
| 20260506181259 | 58 | 185 | 5.2 | 6.1 | 0.00 | 0.00 | 0.00 | 33 | 1008.8 |
| 20260506180756 | 58 | 190 | 7.0 | 11.3 | 0.00 | 0.00 | 0.00 | 32 | 1008.8 |
| 20260506180251 | 58 | 186 | 4.3 | 6.1 | 0.00 | 0.00 | 0.00 | 32 | 1008.8 |
| 20260506175748 | 57 | 157 | 4.3 | 5.2 | 0.00 | 0.00 | 0.00 | 33 | 1009.2 |
| 20260506175245 | 57 | 195 | 4.3 | 5.2 | 0.00 | 0.00 | 0.00 | 33 | 1008.8 |
| 20260506174742 | 57 | 154 | 3.5 | 6.1 | 0.00 | 0.00 | 0.00 | 32 | 1008.8 |
| 20260506174239 | 57 | 179 | 4.3 | 7.0 | 0.00 | 0.00 | 0.00 | 34 | 1008.8 |
| 20260506173737 | 56 | 177 | 5.2 | 7.0 | 0.00 | 0.00 | 0.00 | 33 | 1009.2 |
| 20260506173233 | 56 | 165 | 3.5 | 4.3 | 0.00 | 0.00 | 0.00 | 33 | 1009.5 |
| 20260506172730 | 55 | 153 | 5.2 | 7.0 | 0.00 | 0.00 | 0.00 | 33 | 1009.2 |
| 20260506172227 | 55 | 168 | 4.3 | 6.1 | 0.00 | 0.00 | 0.00 | 35 | 1009.5 |
| 20260506171725 | 54 | 177 | 5.2 | 6.1 | 0.00 | 0.00 | 0.00 | 34 | 1009.5 |
| 20260506171222 | 54 | 117 | 3.5 | 5.2 | 0.00 | 0.00 | 0.00 | 36 | 1009.5 |
| 20260506170719 | 53 | 154 | 4.3 | 5.2 | 0.00 | 0.00 | 0.00 | 36 | 1009.5 |
| 20260506170216 | 53 | 177 | 6.1 | 7.0 | 0.00 | 0.00 | 0.00 | 37 | 1009.5 |
| 20260506165714 | 53 | 167 | 4.3 | 6.1 | 0.00 | 0.00 | 0.00 | 36 | 1009.9 |
| 20260506165211 | 52 | 161 | 2.6 | 4.3 | 0.00 | 0.00 | 0.00 | 37 | 1009.9 |
| 20260506164708 | 52 | 158 | 3.5 | 5.2 | 0.00 | 0.00 | 0.00 | 37 | 1009.9 |
| 20260506164205 | 52 | 160 | 5.2 | 7.0 | 0.00 | 0.00 | 0.00 | 37 | 1009.9 |
| 20260506163701 | 51 | 201 | 4.3 | 6.1 | 0.00 | 0.00 | 0.00 | 37 | 1009.9 |
| 20260506163157 | 51 | 167 | 6.1 | 7.8 | 0.00 | 0.00 | 0.00 | 38 | 1009.9 |
| 20260506162653 | 51 | 177 | 2.6 | 2.6 | 0.00 | 0.00 | 0.00 | 37 | 1010.3 |
| 20260506162150 | 50 | 165 | 6.1 | 7.0 | 0.00 | 0.00 | 0.00 | 37 | 1010.3 |
| 20260506161648 | 50 | 198 | 3.5 | 5.2 | 0.00 | 0.00 | 0.00 | 38 | 1009.9 |
| 20260506161144 | 49 | 135 | 3.5 | 5.2 | 0.00 | 0.00 | 0.00 | 38 | 1010.3 |
| 20260506160642 | 49 | 164 | 2.6 | 5.2 | 0.00 | 0.00 | 0.00 | 38 | 1010.3 |
| 20260506160139 | 48 | 184 | 2.6 | 4.3 | 0.00 | 0.00 | 0.00 | 39 | 1010.3 |
| 20260506155637 | 48 | 166 | 2.6 | 4.3 | 0.00 | 0.00 | 0.00 | 39 | 1010.3 |
| 20260506155134 | 46 | 163 | 3.5 | 5.2 | 0.00 | 0.00 | 0.00 | 40 | 1010.9 |
| 20260506153236 | 46 | 172 | 4.3 | 5.2 | 0.00 | 0.00 | 0.00 | 40 | 1010.6 |
| 20260506152733 | 45 | 146 | 3.5 | 4.3 | 0.00 | 0.00 | 0.00 | 41 | 1010.6 |
| 20260506152230 | 45 | 168 | 4.3 | 7.8 | 0.00 | 0.00 | 0.00 | 41 | 1010.9 |
| 20260506151729 | 45 | 148 | 5.2 | 6.1 | 0.00 | 0.00 | 0.00 | 41 | 1010.6 |
| 20260506151225 | 44 | 154 | 5.2 | 8.7 | 0.00 | 0.00 | 0.00 | 41 | 1010.9 |
| 20260506150722 | 44 | 172 | 5.2 | 7.0 | 0.00 | 0.00 | 0.00 | 42 | 1010.9 |
| 20260506150219 | 44 | 189 | 4.3 | 5.2 | 0.00 | 0.00 | 0.00 | 42 | 1010.9 |
| 20260506145716 | 43 | 205 | 5.2 | 7.0 | 0.00 | 0.00 | 0.00 | 42 | 1010.6 |
| 20260506145212 | 43 | 181 | 7.8 | 9.6 | 0.00 | 0.00 | 0.00 | 42 | 1010.9 |
| 20260506144710 | 42 | 180 | 6.1 | 7.0 | 0.00 | 0.00 | 0.00 | 43 | 1010.9 |
| 20260506144207 | 42 | 166 | 7.0 | 11.3 | 0.00 | 0.00 | 0.00 | 43 | 1011.4 |
| 20260506143704 | 41 | 165 | 3.5 | 6.1 | 0.00 | 0.00 | 0.00 | 43 | 1011.4 |
| 20260506143202 | 41 | 165 | 4.3 | 7.0 | 0.00 | 0.00 | 0.00 | 43 | 1011.4 |